User: anonymous   Login
Location: Caltech
(34.1382°N, 118.1253°W)
Time: 18:49:48
(UTC-07:00)
Language:

CZ-4B DEB - Orbit

View from above orbital plane
View from above orbital plane
View from above satellite
View from above satellite

Ground track
Ground track

The orbit data is extracted from the following two-line orbital elements,

1 27433U 02024D   14297.46975214  .00000684  00000-0  40008-3 0  9610
2 27433 098.8433 261.2068 0013576 262.9810 246.3968 14.11652573640756
Epoch (UTC): 24 October 2014 11:16:26
Eccentricity: 0.0013576
inclination: 98.8433°
perigee height: 844 km
apogee height: 863 km
right ascension of ascending node: 261.2068°
argument of perigee: 262.9810°
revolutions per day: 14.11652573
mean anomaly at epoch: 246.3968°
orbit number at epoch: 64075

The dashed part of the orbit path shows where the satellite is in the earth's shadow,  

DLR